Pleasantville, NJ

2:59 AM EST on January 23, 2017 (GMT -0500)
Atlantic City International

Weather History for KACY - December, 2013

Change the Weather History Date:

Friday, December 27, 2013

  Actual Average Record
Temperature  
Mean Temperature 33 °F 34 °F  
Max Temperature 46 °F 43 °F 67 °F (1973)
Min Temperature 19 °F 26 °F 6 °F (1983)
Degree Days  
Heating Degree Days 32 31  
Month to date heating degree days 696 738  
Since 1 July heating degree days 1699 1645  
Cooling Degree Days 0 0  
Month to date cooling degree days 0 0  
Year to date cooling degree days 1088 1055  
Moisture  
Dew Point 19 °F    
Average Humidity 60    
Maximum Humidity 92    
Minimum Humidity 27    
Precipitation  
Precipitation 0.00 in 0.11 in 1.23 in (1944)
Month to date precipitation 4.59 3.27  
Year to date precipitation 44.65 41.33  
Snow  
Snow 0.00 in 0.20 in 4.50 in (1939)
Month to date snowfall 3.3 3.2  
Since 1 July snowfall 3.3 3.4  
Snow Depth 0.00 in    
Sea Level Pressure  
Sea Level Pressure 30.36 in    
Wind  
Wind Speed 4 mph (WSW)    
Max Wind Speed 16 mph    
Max Gust Speed 20 mph    
Visibility 10 miles    
Events      
T = Trace of Precipitation, MM = Missing Value Source: NWS Daily Summary

Daily Weather History Graph

Daily Weather History Graph

Search for Another Location

Airport or City:

Trip Planner

Search our weather history database for the weather conditions in past years. The results will help you decide how hot, cold, wet, or windy it might be!

Date:

Astronomy

Dec. 27, 2013 Rise Set
Actual Time 7:17 AM EST 4:41 PM EST
Civil Twilight 6:47 AM EST 5:11 PM EST
Nautical Twilight 6:13 AM EST 5:45 PM EST
Astronomical Twilight 5:40 AM EST 6:18 PM EST
Moon 1:47 AM EST (12/27) 12:49 PM EST (12/27)
Length of Visible Light 10h 24m
Length of Day
9h 24m
Waning Crescent, 28% of the Moon is Illuminated
Dec 27
Waning Crescent
Jan 1
New
Jan 7
First Quarter
Jan 15
Full
Jan 24
Last Quarter

Hourly Weather History & Observations

Time (EST) Temp. Windchill Dew Point Humidity Pressure Visibility Wind Dir Wind Speed Gust Speed Precip Events Conditions
12:54 AM 25.0 °F - 21.0 °F 85% 30.34 in 10.0 mi Calm Calm - N/A   Clear
1:54 AM 21.9 °F - 19.0 °F 89% 30.35 in 10.0 mi Calm Calm - N/A   Clear
2:54 AM 21.0 °F - 17.1 °F 85% 30.36 in 10.0 mi Calm Calm - N/A   Clear
3:54 AM 21.9 °F - 18.0 °F 85% 30.36 in 10.0 mi Calm Calm - N/A   Clear
4:54 AM 19.9 °F - 17.1 °F 89% 30.37 in 10.0 mi Calm Calm - N/A   Clear
5:54 AM 21.0 °F - 18.0 °F 88% 30.38 in 10.0 mi Calm Calm - N/A   Clear
6:54 AM 21.0 °F - 18.0 °F 88% 30.39 in 10.0 mi Calm Calm - N/A   Clear
7:54 AM 24.1 °F - 21.0 °F 88% 30.41 in 10.0 mi Calm Calm - N/A   Clear
8:54 AM 30.0 °F 25.2 °F 24.1 °F 79% 30.42 in 10.0 mi West 4.6 mph - N/A   Clear
9:54 AM 35.1 °F 29.3 °F 21.9 °F 59% 30.43 in 10.0 mi NW 6.9 mph - N/A   Clear
10:54 AM 39.0 °F 34.0 °F 18.0 °F 43% 30.41 in 10.0 mi West 6.9 mph - N/A   Clear
11:54 AM 43.0 °F 38.2 °F 17.1 °F 35% 30.38 in 10.0 mi SW 8.1 mph - N/A   Mostly Cloudy
12:54 PM 44.1 °F 38.1 °F 15.1 °F 31% 30.35 in 10.0 mi WSW 11.5 mph - N/A   Clear
1:54 PM 45.0 °F 38.5 °F 12.9 °F 27% 30.32 in 10.0 mi WSW 13.8 mph - N/A   Clear
2:54 PM 46.0 °F 41.0 °F 15.1 °F 29% 30.31 in 10.0 mi WSW 10.4 mph - N/A   Clear
3:54 PM 45.0 °F 40.1 °F 17.1 °F 33% 30.31 in 10.0 mi WSW 9.2 mph - N/A   Clear
4:54 PM 42.1 °F 38.4 °F 19.0 °F 40% 30.32 in 10.0 mi SW 5.8 mph - N/A   Clear
5:54 PM 37.0 °F 33.3 °F 19.9 °F 50% 30.33 in 10.0 mi SSW 4.6 mph - N/A   Clear
6:54 PM 32.0 °F - 19.9 °F 61% 30.34 in 10.0 mi Calm Calm - N/A   Clear
7:54 PM 33.1 °F - 21.0 °F 61% 30.35 in 10.0 mi Calm Calm - N/A   Clear
8:54 PM 30.9 °F 27.5 °F 21.9 °F 69% 30.35 in 10.0 mi SW 3.5 mph - N/A   Clear
9:54 PM 34.0 °F 28.8 °F 25.0 °F 70% 30.35 in 10.0 mi SW 5.8 mph - N/A   Clear
10:54 PM 26.1 °F 19.4 °F 21.0 °F 81% 30.35 in 10.0 mi North 5.8 mph - N/A   Clear
11:54 PM 28.0 °F - 23.0 °F 81% 30.35 in 10.0 mi Calm Calm - N/A   Clear